This is the latest recevied weather packets stored in our database for station/object G0TRT-13. If no packets are shown the sender has not sent any weather packets the latest 1 day(s).
| Time | Temp. | Humidity | Pressure | Rain* | Wind** | Luminosity | Snow |
|---|---|---|---|---|---|---|---|
| 1778020192 | 10° C | 78% | 1012.9 hPa | 0 mm | - | - | - |
| 1778015670 | 9.44° C | 77% | 1013 hPa | 0 mm | - | - | - |
| 1778015070 | 9.44° C | 77% | 1013.1 hPa | 0 mm | - | - | - |
| 1778014768 | 9.44° C | 76% | 1013.1 hPa | 0 mm | - | - | - |
| 1778014156 | 9.44° C | 76% | 1013.1 hPa | 0 mm | - | - | - |
| 1778013552 | 9.44° C | 75% | 1013 hPa | 0 mm | - | - | - |
| 1778012950 | 9.44° C | 74% | 1012.8 hPa | 0 mm | - | - | - |
| 1778012346 | 10° C | 74% | 1012.8 hPa | 0 mm | - | - | - |
| 1778011741 | 10° C | 73% | 1012.7 hPa | 0 mm | - | - | - |
| 1778011138 | 10.56° C | 72% | 1012.8 hPa | 0 mm | - | - | - |
| 1778010534 | 10.56° C | 72% | 1012.4 hPa | 0 mm | - | - | - |
| 1778009334 | 11.67° C | 70% | 1012.3 hPa | 0 mm | - | - | - |
| 1778008875 | 11.67° C | 69% | 1012.3 hPa | 0 mm | - | - | - |
| 1778007532 | 12.22° C | 68% | 1012.1 hPa | 0 mm | - | - | - |
| 1778006329 | 12.78° C | 68% | 1012.1 hPa | 0 mm | - | - | - |
| 1778005428 | 12.78° C | 68% | 1012 hPa | 0 mm | - | - | - |
| 1778005128 | 12.78° C | 67% | 1011.9 hPa | 0 mm | - | - | - |
| 1778004828 | 13.33° C | 67% | 1012 hPa | 0 mm | - | - | - |
| 1778002115 | 14.44° C | 62% | 1012 hPa | 0 mm | - | - | - |
| 1778000913 | 14.44° C | 61% | 1012.1 hPa | 0 mm | - | - | - |
* Rain latest hour (hover to see other rain measurements)
** Current wind speed in m/s (hover to see current wind gust speed)